#�ϑ�����,���ϕ���,���ϕ���,�ő啗��,�ő啗����������,�ő�u�ԕ���,�ő�u�ԕ�����������
#(�N����),(m/s)   ,(16����),(m/s)   ,(16����)        ,(m/s)       ,(16����)            
2013/1/28 0:01,1.9,11,1.9,10,4.1,11
2013/1/28 0:02,1.9,11,1.9,10,4.3,9
2013/1/28 0:03,1.8,11,1.9,10,3.5,12
2013/1/28 0:04,1.8,11,1.8,10,3.8,11
2013/1/28 0:05,1.9,10,1.9,10,3.8,10
2013/1/28 0:06,2,10,2,10,4.2,10
2013/1/28 0:07,2,10,2,10,2.9,9
2013/1/28 0:08,2,10,2,10,3.3,10
2013/1/28 0:09,1.9,11,2,10,2,12
2013/1/28 0:10,1.8,11,1.9,10,2.2,9
2013/1/28 0:11,1.8,11,1.9,10,4.2,10
2013/1/28 0:12,1.8,10,1.8,10,3.3,9
2013/1/28 0:13,1.8,11,1.8,10,3.2,11
2013/1/28 0:14,1.7,10,1.8,10,3,9
2013/1/28 0:15,1.6,11,1.7,10,1.9,12
2013/1/28 0:16,1.5,11,1.6,10,2.1,10
2013/1/28 0:17,1.4,11,1.5,10,1.6,14
2013/1/28 0:18,1.3,11,1.4,10,1.6,12
2013/1/28 0:19,1.4,11,1.4,11,2.2,12
2013/1/28 0:20,1.5,11,1.5,11,3.2,12
2013/1/28 0:21,1.4,11,1.5,11,3.9,10
2013/1/28 0:22,1.4,11,1.4,11,2.6,10
2013/1/28 0:23,1.3,11,1.4,11,2.7,12
2013/1/28 0:24,1.3,11,1.3,10,2,10
2013/1/28 0:25,1.4,11,1.4,11,4.2,10
2013/1/28 0:26,1.5,11,1.5,11,5.5,11
2013/1/28 0:27,1.7,11,1.7,11,5.4,9
2013/1/28 0:28,1.9,10,1.9,10,6.4,9
2013/1/28 0:29,2.2,10,2.2,10,7.2,10
2013/1/28 0:30,2.5,10,2.5,10,7.8,10
2013/1/28 0:31,2.6,10,2.6,10,6.5,9
2013/1/28 0:32,2.7,10,2.7,10,4.4,9
2013/1/28 0:33,2.7,10,2.7,10,2.1,10
2013/1/28 0:34,2.7,10,2.7,10,4.1,9
2013/1/28 0:35,2.8,10,2.8,10,5.2,10
2013/1/28 0:36,3,10,3,10,5.7,9
2013/1/28 0:37,2.9,10,3,10,3,10
2013/1/28 0:38,2.7,10,2.8,10,2.6,7
2013/1/28 0:39,2.4,10,2.7,10,1.9,8
2013/1/28 0:40,2,10,2.4,10,2.7,11
2013/1/28 0:41,2,10,2.1,10,4.5,12
2013/1/28 0:42,2.1,10,2.1,10,4.8,10
2013/1/28 0:43,2.2,10,2.2,10,3.2,12
2013/1/28 0:44,2.2,10,2.2,10,3,11
2013/1/28 0:45,2.1,11,2.2,10,3.6,13
2013/1/28 0:46,2,11,2.1,10,3.3,9
2013/1/28 0:47,2,11,2,10,4.2,10
2013/1/28 0:48,2.2,11,2.2,10,4.5,9
2013/1/28 0:49,2.4,11,2.4,10,3.7,10
2013/1/28 0:50,2.4,11,2.4,11,3.1,10
2013/1/28 0:51,2.3,11,2.4,11,2,11
2013/1/28 0:52,2.2,11,2.3,11,2.1,9
2013/1/28 0:53,2.1,11,2.2,11,3.3,9
2013/1/28 0:54,2.1,11,2.1,11,3.1,9
2013/1/28 0:55,2.1,10,2.2,11,4.2,9
2013/1/28 0:56,2.1,10,2.1,11,4.1,9
2013/1/28 0:57,1.9,11,2.1,11,2.7,12
2013/1/28 0:58,1.8,11,1.9,11,2.5,15
2013/1/28 0:59,1.6,11,1.7,11,1.5,1
2013/1/28 1:00,1.5,11,1.6,11,1.6,10
2013/1/28 1:01,1.4,11,1.5,11,1.5,9
2013/1/28 1:02,1.4,11,1.4,11,1.3,8
2013/1/28 1:03,1.4,11,1.4,10,3.1,10
2013/1/28 1:04,1.3,11,1.4,10,1.3,12
2013/1/28 1:05,1.2,11,1.3,10,1.9,11
2013/1/28 1:06,1.2,11,1.2,10,2.5,11
2013/1/28 1:07,1.2,12,1.2,11,2.2,13
2013/1/28 1:08,1.2,11,1.2,11,3,13
2013/1/28 1:09,1.4,11,1.4,11,4.1,13
2013/1/28 1:10,1.6,11,1.6,11,4.2,13
2013/1/28 1:11,1.8,12,1.8,12,3.9,12
2013/1/28 1:12,2,12,2,12,3.9,12
2013/1/28 1:13,2.1,12,2.1,12,3.2,10
2013/1/28 1:14,2.3,12,2.3,12,3.2,10
2013/1/28 1:15,2.3,12,2.3,12,2.7,12
2013/1/28 1:16,2.3,12,2.4,12,3.1,12
2013/1/28 1:17,2.4,12,2.4,12,7.7,10
2013/1/28 1:18,2.7,12,2.7,12,7.6,9
2013/1/28 1:19,2.7,12,2.7,12,6.8,11
2013/1/28 1:20,2.7,11,2.8,11,6.3,8
2013/1/28 1:21,2.6,11,2.7,11,4.5,8
2013/1/28 1:22,2.6,10,2.6,11,4.5,8
2013/1/28 1:23,2.4,10,2.5,11,2.2,8
2013/1/28 1:24,2.2,10,2.3,11,0.9,12
2013/1/28 1:25,2.1,10,2.2,11,2.7,15
2013/1/28 1:26,2,9,2.1,11,0.8,16
2013/1/28 1:27,1.9,8,2,11,1.9,3
2013/1/28 1:28,1.5,6,1.8,11,1.4,3
2013/1/28 1:29,1.3,5,1.5,11,1.3,8
2013/1/28 1:30,1.1,5,1.3,11,2.1,9
2013/1/28 1:31,1,2,1.1,11,1.1,11
2013/1/28 1:32,0.9,16,1,10,2.1,9
2013/1/28 1:33,0.9,14,0.9,10,3.1,9
2013/1/28 1:34,1.1,14,1.1,10,3,10
2013/1/28 1:35,1.2,13,1.2,10,5.1,12
2013/1/28 1:36,1.3,12,1.3,9,3.2,14
2013/1/28 1:37,1.3,12,1.3,8,2.4,12
2013/1/28 1:38,1.3,12,1.3,5,1,11
2013/1/28 1:39,1.3,11,1.3,5,1.8,7
2013/1/28 1:40,1.2,11,1.3,13,2,8
2013/1/28 1:41,1.4,11,1.4,11,2.6,9
2013/1/28 1:42,1.5,10,1.5,10,4.2,9
2013/1/28 1:43,1.6,10,1.6,10,5,10
2013/1/28 1:44,1.6,10,1.6,10,6.5,12
2013/1/28 1:45,1.7,10,1.7,10,6.7,11
2013/1/28 1:46,1.8,10,1.8,10,5.5,10
2013/1/28 1:47,2.1,10,2.1,10,7.5,10
2013/1/28 1:48,2.4,10,2.4,10,7.8,10
2013/1/28 1:49,2.8,10,2.8,10,9.1,11
2013/1/28 1:50,3.2,10,3.2,10,8.3,10
2013/1/28 1:51,3.2,11,3.3,10,6,11
2013/1/28 1:52,3.1,11,3.2,10,3.3,9
2013/1/28 1:53,3,11,3.2,10,2.7,12
2013/1/28 1:54,2.9,11,3,10,2.5,10
2013/1/28 1:55,2.7,10,2.9,10,2,10
2013/1/28 1:56,2.6,10,2.7,10,2.1,10
2013/1/28 1:57,2.2,10,2.6,10,1.4,13
2013/1/28 1:58,2,11,2.2,10,2.1,13
2013/1/28 1:59,1.6,11,2,10,1.9,12
2013/1/28 2:00,1.3,11,1.5,10,2.5,12
2013/1/28 2:01,1.2,11,1.3,11,1.9,15
2013/1/28 2:02,1.2,12,1.2,11,3.1,12
2013/1/28 2:03,1.3,12,1.3,11,3.6,11
2013/1/28 2:04,1.4,12,1.4,11,3.7,11
2013/1/28 2:05,1.4,12,1.4,10,3.7,9
2013/1/28 2:06,1.4,12,1.4,10,2.2,10
2013/1/28 2:07,1.6,12,1.6,11,2.5,15
2013/1/28 2:08,1.7,12,1.7,11,3.2,11
2013/1/28 2:09,1.8,12,1.8,12,2.9,11
2013/1/28 2:10,1.9,12,1.9,12,5.5,9
2013/1/28 2:11,2,11,2,11,6.2,9
2013/1/28 2:12,2.2,11,2.2,11,4.7,10
2013/1/28 2:13,2.2,11,2.2,11,4.2,9
2013/1/28 2:14,2.3,11,2.3,11,4.2,10
2013/1/28 2:15,2.4,10,2.4,11,4.1,10
2013/1/28 2:16,2.5,10,2.5,10,5,8
2013/1/28 2:17,2.6,10,2.6,10,4.5,9
2013/1/28 2:18,2.6,10,2.6,10,3.9,9
2013/1/28 2:19,2.6,10,2.6,10,3.6,10
2013/1/28 2:20,2.5,10,2.6,10,3.7,8
2013/1/28 2:21,2.3,10,2.5,10,1.8,12
2013/1/28 2:22,2.1,10,2.3,10,0.9,6
2013/1/28 2:23,1.8,10,2,10,1.5,8
2013/1/28 2:24,1.7,10,1.8,10,2.4,15
2013/1/28 2:25,1.5,10,1.7,10,2.9,15
2013/1/28 2:26,1.4,11,1.5,10,2,1
2013/1/28 2:27,1.3,14,1.4,10,1,4
2013/1/28 2:28,1.2,15,1.2,10,3.3,13
2013/1/28 2:29,1.2,15,1.2,10,5.5,9
2013/1/28 2:30,1.1,15,1.2,10,3.9,7
2013/1/28 2:31,1.1,1,1.1,10,2,11
2013/1/28 2:32,1.2,16,1.2,10,1.4,11
2013/1/28 2:33,1.3,15,1.3,10,4.7,9
2013/1/28 2:34,1.4,13,1.4,10,4.3,9
2013/1/28 2:35,1.5,10,1.5,10,5.7,10
2013/1/28 2:36,1.9,10,1.9,10,6.2,10
2013/1/28 2:37,2.1,10,2.1,10,5.1,9
2013/1/28 2:38,2.2,9,2.2,10,3.2,8
2013/1/28 2:39,2.2,9,2.2,10,4.3,8
2013/1/28 2:40,2.2,9,2.2,10,3.6,9
2013/1/28 2:41,2.2,9,2.2,10,2,8
2013/1/28 2:42,2.3,9,2.3,9,1.9,6
2013/1/28 2:43,2.1,9,2.3,9,1.8,7
2013/1/28 2:44,2,9,2.1,9,1.6,7
2013/1/28 2:45,1.9,9,2,9,3.1,11
2013/1/28 2:46,1.7,9,1.9,9,3.7,10
2013/1/28 2:47,1.5,9,1.6,9,2,12
2013/1/28 2:48,1.4,9,1.5,9,2.2,15
2013/1/28 2:49,1.2,9,1.4,9,0.9,15
2013/1/28 2:50,1.2,10,1.2,9,2.4,12
2013/1/28 2:51,1.2,10,1.2,9,2.6,9
2013/1/28 2:52,1.3,10,1.3,9,2.9,8
2013/1/28 2:53,1.4,10,1.4,9,2.9,7
2013/1/28 2:54,1.4,10,1.5,9,2.1,9
2013/1/28 2:55,1.3,10,1.4,9,1,9
2013/1/28 2:56,1.1,10,1.3,9,0.5,15
2013/1/28 2:57,1,10,1.1,9,0.3,14
2013/1/28 2:58,0.9,10,0.9,10,0.6,7
2013/1/28 2:59,1,9,1,10,2.6,7
2013/1/28 3:00,1.2,9,1.2,10,3.8,8
2013/1/28 3:01,1.2,8,1.2,10,3.8,8
2013/1/28 3:02,1.3,8,1.3,10,3.2,5
2013/1/28 3:03,1.3,8,1.3,10,3.2,5
2013/1/28 3:04,1.5,7,1.5,7,3.5,5
2013/1/28 3:05,1.6,7,1.6,7,2.5,3
2013/1/28 3:06,1.8,6,1.8,6,2.2,3
2013/1/28 3:07,1.9,6,1.9,6,2.4,5
2013/1/28 3:08,2,6,2,6,1.8,5
2013/1/28 3:09,1.9,5,2,6,1.3,3
2013/1/28 3:10,1.7,5,1.9,6,1.4,3
2013/1/28 3:11,1.5,4,1.6,6,0.5,2
2013/1/28 3:12,1.2,4,1.4,6,1.1,6
2013/1/28 3:13,1.2,4,1.2,6,2.5,6
2013/1/28 3:14,1.1,4,1.1,6,3,6
2013/1/28 3:15,1.2,4,1.2,6,3,3
2013/1/28 3:16,1.2,4,1.2,6,3.5,3
2013/1/28 3:17,1.2,4,1.2,6,2,6
2013/1/28 3:18,1.3,4,1.3,6,3.3,6
2013/1/28 3:19,1.4,4,1.4,5,3,3
2013/1/28 3:20,1.5,5,1.5,5,2.6,3
2013/1/28 3:21,1.7,5,1.7,5,3,4
2013/1/28 3:22,1.9,4,1.9,4,3.8,4
2013/1/28 3:23,1.9,4,1.9,4,4.4,4
2013/1/28 3:24,1.7,4,1.9,4,1.8,2
2013/1/28 3:25,1.6,4,1.7,4,2.2,10
2013/1/28 3:26,1.7,4,1.7,4,6.9,10
2013/1/28 3:27,1.6,4,1.7,4,2.6,8
2013/1/28 3:28,1.7,4,1.7,4,6,11
2013/1/28 3:29,1.7,6,1.7,4,6.7,10
2013/1/28 3:30,1.8,7,1.8,4,4.4,7
2013/1/28 3:31,1.7,9,1.8,4,4.1,9
2013/1/28 3:32,1.6,9,1.7,4,1.8,9
2013/1/28 3:33,1.5,9,1.6,4,1.9,9
2013/1/28 3:34,1.5,10,1.5,7,0.8,10
2013/1/28 3:35,1.4,9,1.5,7,1,9
2013/1/28 3:36,1.1,9,1.4,7,1.5,9
2013/1/28 3:37,1.2,10,1.2,7,2.9,10
2013/1/28 3:38,1.1,10,1.2,7,2.7,10
2013/1/28 3:39,1.2,9,1.2,7,4.1,8
2013/1/28 3:40,1.1,10,1.2,8,3.6,9
2013/1/28 3:41,1.2,10,1.2,9,3.1,11
2013/1/28 3:42,1.3,10,1.3,9,2.7,9
2013/1/28 3:43,1.4,10,1.4,9,2.6,9
2013/1/28 3:44,1.5,10,1.5,10,1.8,9
2013/1/28 3:45,1.6,10,1.6,10,2.4,9
2013/1/28 3:46,1.7,10,1.7,10,2.2,11
2013/1/28 3:47,1.6,10,1.7,10,0.8,10
2013/1/28 3:48,1.5,10,1.6,10,0.9,4
2013/1/28 3:49,1.2,10,1.4,10,0.5,2
2013/1/28 3:50,1.2,10,1.2,10,2.5,7
2013/1/28 3:51,1,9,1.2,10,2,7
2013/1/28 3:52,0.9,9,1,10,1.4,11
2013/1/28 3:53,0.8,9,0.9,10,3,10
2013/1/28 3:54,0.9,9,0.9,10,3.1,10
2013/1/28 3:55,0.9,9,0.9,10,3,9
2013/1/28 3:56,0.8,9,0.9,10,2.2,8
2013/1/28 3:57,0.9,10,0.9,10,1.6,1
2013/1/28 3:58,1,11,1,10,3.1,16
2013/1/28 3:59,1.2,11,1.2,10,3.2,16
2013/1/28 4:00,1.2,12,1.3,11,1.8,16
2013/1/28 4:01,1.3,13,1.3,11,1.3,4
2013/1/28 4:02,1.3,16,1.3,11,1.4,6
2013/1/28 4:03,1.3,16,1.3,11,1.5,16
2013/1/28 4:04,1.2,1,1.3,11,1.6,5
2013/1/28 4:05,1.3,2,1.3,11,4.3,6
2013/1/28 4:06,1.4,3,1.4,2,3.5,6
2013/1/28 4:07,1.3,3,1.4,2,1.6,10
2013/1/28 4:08,1.3,3,1.3,2,1.8,14
2013/1/28 4:09,1.3,4,1.3,2,6.5,16
2013/1/28 4:10,1.4,3,1.4,2,5.1,15
2013/1/28 4:11,1.4,2,1.5,3,2,16
2013/1/28 4:12,1.5,1,1.5,3,1.3,15
2013/1/28 4:13,1.4,16,1.5,3,1.1,14
2013/1/28 4:14,1.5,16,1.5,3,2.4,1
2013/1/28 4:15,1.4,15,1.5,3,4.5,1
2013/1/28 4:16,1.6,16,1.6,16,5.2,2
2013/1/28 4:17,1.8,16,1.8,16,5,2
2013/1/28 4:18,1.9,16,1.9,16,4.1,3
2013/1/28 4:19,1.7,16,2,16,3.5,3
2013/1/28 4:20,1.7,16,1.7,16,3.6,16
2013/1/28 4:21,1.9,16,1.9,16,4.3,11
2013/1/28 4:22,2,16,2,16,6.4,13
2013/1/28 4:23,2.2,16,2.2,16,7,12
2013/1/28 4:24,2.3,15,2.3,16,4.2,10
2013/1/28 4:25,2.3,14,2.4,15,4.4,11
2013/1/28 4:26,2.1,14,2.3,15,2.4,13
2013/1/28 4:27,1.9,13,2.1,15,2.6,12
2013/1/28 4:28,2,13,2,15,3.5,15
2013/1/28 4:29,1.9,13,2,15,2,15
2013/1/28 4:30,1.9,13,1.9,15,3,15
2013/1/28 4:31,1.8,13,1.9,15,3.2,16
2013/1/28 4:32,1.7,14,1.8,15,2.4,14
2013/1/28 4:33,1.9,15,1.9,15,9.1,16
2013/1/28 4:34,1.8,15,1.9,15,6.5,1
2013/1/28 4:35,1.7,16,1.8,14,3.5,1
2013/1/28 4:36,1.9,16,1.9,14,4.5,16
2013/1/28 4:37,2.1,16,2.1,16,3.8,15
2013/1/28 4:38,2.2,15,2.2,15,4.9,14
2013/1/28 4:39,2.3,15,2.3,15,3.9,12
2013/1/28 4:40,2.2,15,2.3,15,2.1,8
2013/1/28 4:41,2.2,15,2.2,15,2.7,10
2013/1/28 4:42,2.2,16,2.2,15,1.5,4
2013/1/28 4:43,1.8,14,2.2,15,1.8,9
2013/1/28 4:44,1.7,13,1.8,15,0.6,16
2013/1/28 4:45,1.6,13,1.6,15,2.5,9
2013/1/28 4:46,1.4,10,1.5,15,3.5,8
2013/1/28 4:47,1.2,9,1.4,15,2.1,8
2013/1/28 4:48,1.1,8,1.2,15,3.7,9
2013/1/28 4:49,1.1,8,1.1,15,3.2,7
2013/1/28 4:50,1.3,9,1.3,15,3.6,10
2013/1/28 4:51,1.5,9,1.5,15,5.5,9
2013/1/28 4:52,1.4,9,1.5,16,2.9,8
2013/1/28 4:53,1.5,9,1.5,14,1.8,9
2013/1/28 4:54,1.7,9,1.7,9,3.5,8
2013/1/28 4:55,1.9,9,1.9,9,3.6,8
2013/1/28 4:56,2,9,2,9,4.2,9
2013/1/28 4:57,2.1,9,2.1,9,2.1,8
2013/1/28 4:58,2,8,2.1,9,1.5,8
2013/1/28 4:59,1.9,8,2,9,2.2,8
2013/1/28 5:00,1.8,8,1.9,9,1.6,8
2013/1/28 5:01,1.6,8,1.7,9,2.9,8
2013/1/28 5:02,1.7,8,1.7,9,3,9
2013/1/28 5:03,1.8,8,1.8,9,3.8,9
2013/1/28 5:04,1.7,8,1.8,9,3.1,9
2013/1/28 5:05,1.7,8,1.7,9,4.1,9
2013/1/28 5:06,1.6,8,1.7,9,3.2,10
2013/1/28 5:07,1.6,8,1.6,9,2.5,9
2013/1/28 5:08,1.6,8,1.6,8,3,9
2013/1/28 5:09,1.6,8,1.6,8,2,7
2013/1/28 5:10,1.5,8,1.6,8,1.6,8
2013/1/28 5:11,1.5,8,1.5,8,1.8,7
2013/1/28 5:12,1.4,8,1.5,8,1.8,7
2013/1/28 5:13,1.3,8,1.4,8,1,6
2013/1/28 5:14,1.2,7,1.3,8,0.9,6
2013/1/28 5:15,1.1,7,1.2,8,1.5,9
2013/1/28 5:16,1.1,7,1.1,8,1.5,9
2013/1/28 5:17,1,7,1.1,8,1.8,9
2013/1/28 5:18,0.9,7,1,8,0.9,9
2013/1/28 5:19,0.9,8,0.9,8,1.4,8
2013/1/28 5:20,1,8,1,8,2.5,7
2013/1/28 5:21,1,8,1,8,3,9
2013/1/28 5:22,1,8,1,8,3.2,9
2013/1/28 5:23,1,8,1,8,2.4,9
2013/1/28 5:24,1.1,9,1.1,7,2.7,10
2013/1/28 5:25,1.2,9,1.2,9,2.6,12
2013/1/28 5:26,1.2,10,1.2,9,2.7,11
2013/1/28 5:27,1.3,10,1.3,10,3.3,10
2013/1/28 5:28,1.6,10,1.6,10,4.4,11
2013/1/28 5:29,1.7,11,1.7,10,3.9,11
2013/1/28 5:30,1.9,11,1.9,11,3.9,9
2013/1/28 5:31,1.9,11,1.9,11,2.7,9
2013/1/28 5:32,1.9,11,1.9,11,2.7,14
2013/1/28 5:33,2,11,2,11,3,11
2013/1/28 5:34,2,11,2,11,2.9,10
2013/1/28 5:35,2.1,11,2.1,11,3.3,9
2013/1/28 5:36,2,11,2.1,11,3.6,10
2013/1/28 5:37,1.9,11,2,11,2.1,9
2013/1/28 5:38,1.8,11,1.9,11,3.5,10
2013/1/28 5:39,1.8,11,1.8,11,4.1,12
2013/1/28 5:40,1.7,12,1.8,11,3.3,12
2013/1/28 5:41,1.7,12,1.7,11,2.6,13
2013/1/28 5:42,1.7,12,1.7,11,3.1,12
2013/1/28 5:43,1.7,12,1.7,11,2.5,12
2013/1/28 5:44,1.7,12,1.7,11,2.1,12
2013/1/28 5:45,1.7,12,1.7,11,3,13
2013/1/28 5:46,1.7,12,1.7,11,2.2,14
2013/1/28 5:47,1.8,12,1.8,11,3.1,12
2013/1/28 5:48,1.7,12,1.8,11,2.6,9
2013/1/28 5:49,1.6,12,1.7,11,2.7,10
2013/1/28 5:50,1.7,12,1.7,12,3.9,11
2013/1/28 5:51,1.8,12,1.8,12,3.8,10
2013/1/28 5:52,1.9,11,1.9,12,3,10
2013/1/28 5:53,1.9,11,1.9,12,3.5,11
2013/1/28 5:54,2,11,2,11,3.6,11
2013/1/28 5:55,1.9,11,2,11,3.6,10
2013/1/28 5:56,1.9,11,1.9,11,1.9,10
2013/1/28 5:57,1.8,11,1.9,11,2.4,9
2013/1/28 5:58,1.9,11,1.9,11,2.9,12
2013/1/28 5:59,1.9,11,1.9,11,2.9,11
2013/1/28 6:00,1.8,11,1.9,11,3,11
2013/1/28 6:01,1.7,11,1.7,11,2.4,9
2013/1/28 6:02,1.6,11,1.7,11,2,8
2013/1/28 6:03,1.5,11,1.6,11,2.2,11
2013/1/28 6:04,1.5,11,1.5,11,3.5,9
2013/1/28 6:05,1.6,11,1.6,11,5.4,11
2013/1/28 6:06,1.8,11,1.8,11,4.4,11
2013/1/28 6:07,1.9,11,1.9,11,3.8,9
2013/1/28 6:08,1.9,11,1.9,11,2.9,11
2013/1/28 6:09,2.1,11,2.1,11,4.2,10
2013/1/28 6:10,2.1,11,2.1,11,4.3,10
2013/1/28 6:11,2.2,11,2.2,11,3.2,13
2013/1/28 6:12,2.3,11,2.3,11,3.9,13
2013/1/28 6:13,2.4,11,2.4,11,3.7,10
2013/1/28 6:14,2.5,11,2.5,11,4.2,10
2013/1/28 6:15,2.5,11,2.5,11,4.8,11
2013/1/28 6:16,2.4,11,2.5,11,3.7,11
2013/1/28 6:17,2.3,11,2.4,11,1.8,15
2013/1/28 6:18,2.2,12,2.3,11,2.9,11
2013/1/28 6:19,2,11,2.2,11,1.5,10
2013/1/28 6:20,1.8,11,2,11,1.3,13
2013/1/28 6:21,1.7,11,1.8,11,1.1,12
2013/1/28 6:22,1.5,11,1.7,11,1.8,12
2013/1/28 6:23,1.4,11,1.5,11,1.4,14
2013/1/28 6:24,1.3,11,1.4,11,1.6,11
2013/1/28 6:25,1.1,11,1.2,11,2.6,10
2013/1/28 6:26,1.1,11,1.1,11,3.1,11
2013/1/28 6:27,1.2,11,1.2,11,2.5,11
2013/1/28 6:28,1.2,11,1.2,12,2.6,9
2013/1/28 6:29,1.2,11,1.2,11,1.9,13
2013/1/28 6:30,1.2,12,1.2,11,2,15
2013/1/28 6:31,1.2,12,1.2,11,0.9,2
2013/1/28 6:32,1.2,12,1.2,11,1.1,3
2013/1/28 6:33,1.2,12,1.2,11,1.4,3
2013/1/28 6:34,1.2,12,1.2,11,1.5,3
2013/1/28 6:35,1.1,15,1.2,11,1,5
2013/1/28 6:36,1.1,4,1.1,11,1.5,6
2013/1/28 6:37,1,4,1,11,1.6,6
2013/1/28 6:38,0.9,5,0.9,11,1.6,6
2013/1/28 6:39,0.9,5,0.9,11,2.1,12
2013/1/28 6:40,1,6,1,12,2.1,10
2013/1/28 6:41,1,6,1,12,2.1,8
2013/1/28 6:42,1,7,1,12,1.6,8
2013/1/28 6:43,1,7,1,12,1.4,8
2013/1/28 6:44,0.9,7,1,12,0.8,2
2013/1/28 6:45,0.9,7,0.9,2,0.9,8
2013/1/28 6:46,0.9,8,0.9,4,0.9,6
2013/1/28 6:47,0.8,8,0.8,5,1.4,6
2013/1/28 6:48,0.8,8,0.8,5,1.8,9
2013/1/28 6:49,0.8,8,0.8,5,1.3,8
2013/1/28 6:50,0.6,7,0.7,6,0.9,14
2013/1/28 6:51,0.6,8,0.6,6,0.4,12
2013/1/28 6:52,0.5,8,0.6,7,0.3,10
2013/1/28 6:53,0.6,8,0.6,7,2.2,7
2013/1/28 6:54,0.7,8,0.7,7,3.6,9
2013/1/28 6:55,1,9,1,9,3.9,8
2013/1/28 6:56,1,9,1,9,2,8
2013/1/28 6:57,1,9,1,9,1.5,10
2013/1/28 6:58,0.9,10,1,9,1.4,14
2013/1/28 6:59,1,10,1,9,1.1,15
2013/1/28 7:00,1,10,1,9,0.9,16
2013/1/28 7:01,1,9,1,9,1.8,7
2013/1/28 7:02,1.1,9,1.1,9,1.8,7
2013/1/28 7:03,1.1,10,1.2,9,1.5,7
2013/1/28 7:04,0.9,11,1.1,9,1.4,12
2013/1/28 7:05,0.8,12,0.9,9,1.5,12
2013/1/28 7:06,0.7,13,0.7,9,1,15
2013/1/28 7:07,0.6,13,0.7,9,0.3,14
2013/1/28 7:08,0.6,13,0.6,9,0.8,14
2013/1/28 7:09,0.6,13,0.6,9,1,15
2013/1/28 7:10,0.6,12,0.6,9,0.9,11
2013/1/28 7:11,0.6,12,0.6,9,1.5,10
2013/1/28 7:12,0.6,13,0.6,9,1.4,10
2013/1/28 7:13,0.6,12,0.6,10,1,10
2013/1/28 7:14,0.6,12,0.6,11,1,12
2013/1/28 7:15,0.5,13,0.6,12,0.5,15
2013/1/28 7:16,0.6,12,0.6,13,2.7,11
2013/1/28 7:17,0.9,12,0.9,12,3.3,11
2013/1/28 7:18,1,12,1,12,3.5,10
2013/1/28 7:19,1.1,11,1.1,12,2.5,10
2013/1/28 7:20,1.3,11,1.3,11,3.6,11
2013/1/28 7:21,1.3,11,1.4,11,2.7,10
2013/1/28 7:22,1.3,11,1.3,11,1.3,2
2013/1/28 7:23,1.4,12,1.4,11,3.7,16
2013/1/28 7:24,1.6,12,1.6,12,4.4,16
2013/1/28 7:25,1.7,11,1.7,12,2.5,14
2013/1/28 7:26,1.7,11,1.8,11,2,9
2013/1/28 7:27,1.6,12,1.7,11,4.5,16
2013/1/28 7:28,1.7,13,1.7,11,4.1,1
2013/1/28 7:29,1.7,15,1.7,11,3.2,1
2013/1/28 7:30,1.7,15,1.7,11,2.2,13
2013/1/28 7:31,1.7,15,1.7,11,2.2,13
2013/1/28 7:32,1.8,15,1.8,11,2.5,13
2013/1/28 7:33,1.7,14,1.8,11,1.4,12
2013/1/28 7:34,1.5,14,1.7,11,2.2,10
2013/1/28 7:35,1.6,13,1.6,11,2.9,9
2013/1/28 7:36,1.7,14,1.7,15,3.3,15
2013/1/28 7:37,1.8,13,1.8,15,4.5,15
2013/1/28 7:38,1.7,13,1.7,15,2.7,11
2013/1/28 7:39,1.7,12,1.7,15,2.4,12
2013/1/28 7:40,1.6,12,1.7,15,1.6,14
2013/1/28 7:41,1.6,12,1.6,15,1.5,15
2013/1/28 7:42,1.5,13,1.5,15,2,16
2013/1/28 7:43,1.6,13,1.6,14,3.2,16
2013/1/28 7:44,1.6,14,1.6,14,1.1,1
2013/1/28 7:45,1.5,14,1.6,14,2.2,9
2013/1/28 7:46,1.4,14,1.5,14,1.9,8
2013/1/28 7:47,1.2,14,1.4,13,1,9
2013/1/28 7:48,1.1,14,1.2,13,3,11
2013/1/28 7:49,1.2,14,1.2,12,4.7,10
2013/1/28 7:50,1.2,13,1.3,12,3.5,9
2013/1/28 7:51,1.3,13,1.3,13,2.4,3
2013/1/28 7:52,1.4,13,1.4,13,3.7,2
2013/1/28 7:53,1.3,12,1.4,13,2.7,4
2013/1/28 7:54,1.4,11,1.4,14,2,14
2013/1/28 7:55,1.3,12,1.4,14,0.9,12
2013/1/28 7:56,1.3,12,1.3,14,2.2,12
2013/1/28 7:57,1.4,13,1.4,13,2.1,13
2013/1/28 7:58,1.4,14,1.5,13,3.5,16
2013/1/28 7:59,1.3,15,1.4,13,2.5,11
2013/1/28 8:00,1.3,15,1.3,13,2.1,11
2013/1/28 8:01,1.3,13,1.3,13,1.9,10
2013/1/28 8:02,1.2,12,1.3,13,3.9,9
2013/1/28 8:03,1.2,12,1.3,13,2.2,6
2013/1/28 8:04,1.2,12,1.2,13,1,16
2013/1/28 8:05,1.3,12,1.3,13,3.7,16
2013/1/28 8:06,1.3,12,1.3,13,2.2,14
2013/1/28 8:07,1.2,12,1.3,13,1.8,9
2013/1/28 8:08,1.2,11,1.2,14,3,4
2013/1/28 8:09,1.3,12,1.3,15,5.6,4
2013/1/28 8:10,1.3,10,1.4,11,2.9,4
2013/1/28 8:11,1.3,6,1.3,11,3.1,3
2013/1/28 8:12,1.5,3,1.5,3,7.4,16
2013/1/28 8:13,1.5,2,1.5,3,6.3,16
2013/1/28 8:14,1.6,2,1.6,2,3,11
2013/1/28 8:15,1.7,3,1.7,2,3.9,10
2013/1/28 8:16,1.8,9,1.8,8,4.1,10
2013/1/28 8:17,2,9,2,9,5.1,11
2013/1/28 8:18,2.1,9,2.1,9,4.3,9
2013/1/28 8:19,2.1,9,2.1,9,4.4,8
2013/1/28 8:20,2.2,10,2.2,10,3.8,11
2013/1/28 8:21,2.4,11,2.4,10,4.7,11
2013/1/28 8:22,2.3,10,2.4,10,4.8,9
2013/1/28 8:23,2.3,10,2.3,10,4.4,9
2013/1/28 8:24,2.3,10,2.3,10,3.6,11
2013/1/28 8:25,2.2,10,2.3,10,3.3,9
2013/1/28 8:26,2.1,10,2.2,10,3.5,10
2013/1/28 8:27,2,10,2.1,10,3.2,9
2013/1/28 8:28,2.2,9,2.2,10,5.4,9
2013/1/28 8:29,2.1,10,2.1,10,3.5,9
2013/1/28 8:30,2.1,9,2.1,10,3.2,9
2013/1/28 8:31,2,9,2,11,3.9,9
2013/1/28 8:32,2,9,2,10,3.7,8
2013/1/28 8:33,2.1,9,2.1,10,4.7,10
2013/1/28 8:34,2.3,9,2.3,10,5.6,8
2013/1/28 8:35,2.4,9,2.4,9,5.1,8
2013/1/28 8:36,2.4,9,2.5,9,3.2,9
2013/1/28 8:37,2.4,9,2.4,9,2.6,1
2013/1/28 8:38,2.3,10,2.3,9,3.5,14
2013/1/28 8:39,2.2,10,2.3,9,2.9,8
2013/1/28 8:40,2.3,10,2.3,9,3.6,10
2013/1/28 8:41,2.3,10,2.4,9,4.7,9
2013/1/28 8:42,2.3,10,2.3,9,4.8,9
2013/1/28 8:43,2.2,10,2.3,9,3.7,9
2013/1/28 8:44,2,10,2.2,9,2.5,9
2013/1/28 8:45,1.8,10,2,9,1.5,9
2013/1/28 8:46,1.7,10,1.8,9,1.1,10
2013/1/28 8:47,1.7,10,1.7,10,2.9,9
2013/1/28 8:48,1.6,10,1.7,10,4.3,9
2013/1/28 8:49,1.7,10,1.7,10,4.1,9
2013/1/28 8:50,1.6,10,1.7,10,2.7,9
2013/1/28 8:51,1.4,10,1.6,10,1.8,12
2013/1/28 8:52,1.2,10,1.4,10,1.3,12
2013/1/28 8:53,1.1,10,1.2,10,1.6,8
2013/1/28 8:54,1.2,10,1.2,10,1.9,8
2013/1/28 8:55,1.2,10,1.2,10,2.1,8
2013/1/28 8:56,1.3,9,1.3,10,2.2,8
2013/1/28 8:57,1.3,9,1.3,10,2.4,8
2013/1/28 8:58,1.3,9,1.3,10,3.1,8
2013/1/28 8:59,1.2,8,1.3,10,1.8,6
2013/1/28 9:00,1.2,8,1.2,10,1.1,4
2013/1/28 9:01,1.2,7,1.2,10,1.6,4
2013/1/28 9:02,1.2,7,1.2,9,1.8,4
2013/1/28 9:03,1.2,7,1.2,9,1.5,3
2013/1/28 9:04,1.2,6,1.2,9,2,4
2013/1/28 9:05,1.3,6,1.3,9,2.6,5
2013/1/28 9:06,1.3,5,1.3,9,2.4,6
2013/1/28 9:07,1.4,5,1.4,5,2.4,6
2013/1/28 9:08,1.4,5,1.4,5,2.2,6
2013/1/28 9:09,1.3,5,1.4,5,1.5,7
2013/1/28 9:10,1.3,5,1.3,5,1.3,15
2013/1/28 9:11,1.3,5,1.3,5,1.3,6
2013/1/28 9:12,1.4,5,1.4,5,2.7,9
2013/1/28 9:13,1.4,6,1.4,5,4.1,8
2013/1/28 9:14,1.5,6,1.5,6,4.2,8
2013/1/28 9:15,1.4,7,1.5,6,1.9,8
2013/1/28 9:16,1.3,7,1.4,6,1.1,9
2013/1/28 9:17,1.1,7,1.3,6,0.8,6
2013/1/28 9:18,1.1,7,1.1,6,2.7,7
2013/1/28 9:19,1.2,8,1.2,6,3.2,8
2013/1/28 9:20,1.3,8,1.3,6,2.2,9
2013/1/28 9:21,1.4,8,1.4,6,3,7
2013/1/28 9:22,1.4,8,1.4,6,2.9,8
2013/1/28 9:23,1.4,8,1.4,6,2.4,8
2013/1/28 9:24,1.3,8,1.4,7,2.4,8
2013/1/28 9:25,1.4,8,1.4,7,2.2,7
2013/1/28 9:26,1.5,7,1.5,7,3,3
2013/1/28 9:27,1.7,7,1.7,7,2.7,3
2013/1/28 9:28,1.8,7,1.8,7,3.3,2
2013/1/28 9:29,1.8,6,1.8,7,3.7,7
2013/1/28 9:30,1.9,6,1.9,6,3,6
2013/1/28 9:31,1.8,6,1.9,6,2.2,5
2013/1/28 9:32,1.8,5,1.8,6,2.4,6
2013/1/28 9:33,1.8,5,1.8,6,2.2,6
2013/1/28 9:34,1.7,4,1.7,6,1.5,1
2013/1/28 9:35,1.6,4,1.7,6,1.6,16
2013/1/28 9:36,1.5,4,1.6,6,2.2,5
2013/1/28 9:37,1.4,4,1.5,6,2.9,3
2013/1/28 9:38,1.4,4,1.4,6,3.9,3
2013/1/28 9:39,1.6,4,1.6,6,6.2,1
2013/1/28 9:40,1.6,3,1.6,6,5.2,2
2013/1/28 9:41,1.7,3,1.7,6,1.9,2
2013/1/28 9:42,1.7,3,1.7,5,2.7,3
2013/1/28 9:43,1.7,3,1.7,5,2.6,7
2013/1/28 9:44,1.8,3,1.8,3,2.5,7
2013/1/28 9:45,1.9,4,1.9,4,4.1,5
2013/1/28 9:46,2,4,2,4,3.6,5
2013/1/28 9:47,1.9,4,2,4,1.1,2
2013/1/28 9:48,1.8,4,1.9,4,3.3,8
2013/1/28 9:49,1.7,5,1.8,4,3.7,9
2013/1/28 9:50,1.7,6,1.7,4,3.6,10
2013/1/28 9:51,1.7,7,1.7,4,4.7,8
2013/1/28 9:52,1.7,7,1.7,4,2.9,8
2013/1/28 9:53,1.8,8,1.8,4,4.8,8
2013/1/28 9:54,1.8,8,1.8,4,3.9,8
2013/1/28 9:55,1.9,8,1.9,4,3.8,8
2013/1/28 9:56,2,8,2,4,4.1,7
2013/1/28 9:57,2.2,8,2.2,8,3.9,7
2013/1/28 9:58,2.2,8,2.2,8,1.9,8
2013/1/28 9:59,2,8,2.2,8,1.4,14
2013/1/28 10:00,1.9,9,2,8,2.2,10
2013/1/28 10:01,1.8,9,1.8,8,2,10
2013/1/28 10:02,1.9,9,1.9,8,3.6,9
2013/1/28 10:03,1.8,9,1.9,8,3.6,10
2013/1/28 10:04,1.8,9,1.8,8,4.8,9
2013/1/28 10:05,1.7,9,1.8,8,3.2,6
2013/1/28 10:06,1.5,9,1.7,8,1.5,7
2013/1/28 10:07,1.4,10,1.5,8,4.1,15
2013/1/28 10:08,1.4,10,1.4,8,3.3,8
2013/1/28 10:09,1.5,9,1.5,8,2,9
2013/1/28 10:10,1.6,9,1.6,9,6.1,8
2013/1/28 10:11,1.7,9,1.8,9,5.4,8
2013/1/28 10:12,1.6,8,1.8,9,2.5,8
2013/1/28 10:13,1.5,8,1.6,9,1.1,8
2013/1/28 10:14,1.4,9,1.5,9,1.4,15
2013/1/28 10:15,1.5,10,1.5,9,2.7,9
2013/1/28 10:16,1.8,10,1.8,9,6.8,8
2013/1/28 10:17,2.1,9,2.1,9,9.4,8
2013/1/28 10:18,2.5,9,2.5,9,8.7,8
2013/1/28 10:19,2.5,10,2.5,9,4.9,9
2013/1/28 10:20,2.5,10,2.6,10,5.4,10
2013/1/28 10:21,2.6,10,2.6,10,4.7,10
2013/1/28 10:22,2.6,10,2.6,10,2.9,10
2013/1/28 10:23,2.6,10,2.6,10,1.9,11
2013/1/28 10:24,2.7,9,2.7,9,3.7,2
2013/1/28 10:25,2.7,9,2.8,9,6.3,16
2013/1/28 10:26,2.9,9,2.9,9,10.6,15
2013/1/28 10:27,2.7,11,2.9,9,7.1,15
2013/1/28 10:28,2.4,13,2.6,9,3.5,1
2013/1/28 10:29,2.5,14,2.5,9,3.7,15
2013/1/28 10:30,2.2,14,2.5,9,1.8,11
2013/1/28 10:31,2.1,15,2.2,9,2.4,8
2013/1/28 10:32,2.2,15,2.2,9,3.9,14
2013/1/28 10:33,2.5,15,2.5,9,6.1,9
2013/1/28 10:34,2.7,14,2.7,9,7.7,9
2013/1/28 10:35,2.6,13,2.7,9,6,7
2013/1/28 10:36,2.3,13,2.6,10,3.9,10
2013/1/28 10:37,2.2,12,2.3,14,4.9,8
2013/1/28 10:38,2.2,11,2.2,14,5.8,10
2013/1/28 10:39,2,10,2.1,14,2,5
2013/1/28 10:40,2,10,2,14,1.8,10
2013/1/28 10:41,2.1,11,2.1,14,3,10
2013/1/28 10:42,2.2,10,2.2,14,4.5,11
2013/1/28 10:43,2.1,10,2.2,14,5,8
2013/1/28 10:44,1.9,10,2.1,14,2.5,11
2013/1/28 10:45,1.8,10,1.9,13,2,10
2013/1/28 10:46,1.8,10,1.8,13,3,11
2013/1/28 10:47,1.7,10,1.7,12,2.5,12
2013/1/28 10:48,1.6,10,1.7,10,2.4,5
2013/1/28 10:49,1.7,10,1.7,10,3.5,1
2013/1/28 10:50,1.8,10,1.8,10,2.4,5
2013/1/28 10:51,1.9,9,1.9,10,4.3,1
2013/1/28 10:52,1.9,7,1.9,10,5.5,2
2013/1/28 10:53,1.9,4,1.9,10,5.2,1
2013/1/28 10:54,2,3,2,3,3.9,3
2013/1/28 10:55,2.2,2,2.2,3,4.9,15
2013/1/28 10:56,2.2,2,2.2,3,2.7,16
2013/1/28 10:57,2.4,2,2.4,2,6.2,1
2013/1/28 10:58,2.6,2,2.6,2,8.5,16
2013/1/28 10:59,2.8,1,2.8,1,6.7,16
2013/1/28 11:00,2.9,1,2.9,1,4.5,16
2013/1/28 11:01,3,1,3,1,4.5,16
2013/1/28 11:02,2.9,1,3,1,4.1,16
2013/1/28 11:03,2.8,1,2.9,1,3.1,2
2013/1/28 11:04,2.7,1,2.8,1,3.3,2
2013/1/28 11:05,2.7,1,2.7,1,4.4,16
2013/1/28 11:06,2.7,1,2.7,1,2.9,15
2013/1/28 11:07,2.6,1,2.7,1,5.1,1
2013/1/28 11:08,2.3,1,2.6,1,2.2,2
2013/1/28 11:09,2.1,1,2.3,1,3,11
2013/1/28 11:10,1.9,1,2.1,1,1.6,16
2013/1/28 11:11,1.7,1,1.9,1,1.5,16
2013/1/28 11:12,1.6,1,1.6,1,3.3,14
2013/1/28 11:13,1.7,16,1.7,1,3,12
2013/1/28 11:14,1.7,15,1.7,1,2.2,10
2013/1/28 11:15,1.4,15,1.6,1,1.8,9
2013/1/28 11:16,1.3,15,1.4,1,0.9,10